,,PA_Meas_PMT16A,,PR_Meas_QMR101_102,,RH_Meas_QMH101,,SR_Meas_QMS101,,TA_Meas_QMH101,,GenWind,,GenWind,
time,status,PA,status,PR,status,RH,status,SR,status,TA,status,DirAvg,status,SpdAvg,
2013-10-27, 00:00:04,VALID,919.161,VALID,0,VALID,95.4223,VALID,0,VALID,19.7418,VALID,140,VALID,0,
2013-10-27, 00:01:04,VALID,919.109,VALID,0,VALID,95.4299,VALID,0.107441,VALID,19.7613,VALID,140,VALID,0,
2013-10-27, 00:02:04,VALID,919.082,VALID,0,VALID,95.4452,VALID,0,VALID,19.7613,VALID,140,VALID,0,
2013-10-27, 00:03:04,VALID,919.09,VALID,0,VALID,95.468,VALID,0,VALID,19.7613,VALID,140,VALID,0,
2013-10-27, 00:04:04,VALID,919.064,VALID,0,VALID,95.4528,VALID,0,VALID,19.7808,VALID,140,VALID,0,
2013-10-27, 00:05:04,VALID,919.091,VALID,0,VALID,95.4604,VALID,0,VALID,19.7808,VALID,140,VALID,0,
2013-10-27, 00:06:04,VALID,919.032,VALID,0,VALID,95.4299,VALID,0,VALID,19.7808,VALID,140,VALID,0,
2013-10-27, 00:07:04,VALID,919.076,VALID,0,VALID,95.3842,VALID,0,VALID,19.7613,VALID,140,VALID,0,
2013-10-27, 00:08:04,VALID,919.066,VALID,0,VALID,95.3537,VALID,0,VALID,19.7613,VALID,141,VALID,0,
2013-10-27, 00:09:04,VALID,919.04,VALID,0,VALID,95.3384,VALID,0,VALID,19.7418,VALID,141,VALID,0,
2013-10-27, 00:10:04,VALID,919.017,VALID,0,VALID,95.3156,VALID,0,VALID,19.7223,VALID,141,VALID,0,
2013-10-27, 00:11:04,VALID,918.987,VALID,0,VALID,95.3079,VALID,0,VALID,19.7223,VALID,141,VALID,0,
2013-10-27, 00:12:04,VALID,918.969,VALID,0,VALID,95.2775,VALID,0,VALID,19.7223,VALID,141,VALID,0,
2013-10-27, 00:13:04,VALID,918.943,VALID,0,VALID,95.247,VALID,0.107441,VALID,19.7028,VALID,141,VALID,0,
2013-10-27, 00:14:04,VALID,918.939,VALID,0,VALID,95.2927,VALID,0,VALID,19.6833,VALID,141,VALID,0,
2013-10-27, 00:15:04,VALID,918.927,VALID,0,VALID,95.2775,VALID,0,VALID,19.6833,VALID,141,VALID,0,
2013-10-27, 00:16:04,VALID,918.878,VALID,0,VALID,95.2698,VALID,0,VALID,19.6638,VALID,141,VALID,0,
2013-10-27, 00:17:04,VALID,918.872,VALID,0,VALID,95.247,VALID,0,VALID,19.6638,VALID,141,VALID,0,
2013-10-27, 00:18:04,VALID,918.86,VALID,0,VALID,95.2775,VALID,0,VALID,19.6443,VALID,141,VALID,0,
2013-10-27, 00:19:04,VALID,918.866,VALID,0,VALID,95.3003,VALID,0,VALID,19.6443,VALID,141,VALID,0,
2013-10-27, 00:20:04,VALID,918.838,VALID,0,VALID,95.3156,VALID,0,VALID,19.6053,VALID,141,VALID,0,
2013-10-27, 00:21:04,VALID,918.853,VALID,0,VALID,95.3308,VALID,0,VALID,19.5858,VALID,141,VALID,0,
2013-10-27, 00:22:04,VALID,918.846,VALID,0,VALID,95.3613,VALID,0,VALID,19.5858,VALID,141,VALID,0,
2013-10-27, 00:23:04,VALID,918.846,VALID,0,VALID,95.3842,VALID,0,VALID,19.5663,VALID,141,VALID,0,
2013-10-27, 00:24:04,VALID,918.875,VALID,0,VALID,95.3994,VALID,0,VALID,19.5663,VALID,141,VALID,0,
2013-10-27, 00:25:04,VALID,918.876,VALID,0,VALID,95.4452,VALID,0,VALID,19.5663,VALID,141,VALID,0,
2013-10-27, 00:26:04,VALID,918.855,VALID,0,VALID,95.468,VALID,0,VALID,19.5468,VALID,141,VALID,0,
2013-10-27, 00:27:04,VALID,918.881,VALID,0,VALID,95.5214,VALID,0,VALID,19.5873,VALID,141,VALID,0,
2013-10-27, 00:28:04,VALID,918.861,VALID,0,VALID,95.5595,VALID,0,VALID,19.5663,VALID,141,VALID,0,
2013-10-27, 00:29:04,VALID,918.883,VALID,0,VALID,95.6129,VALID,0,VALID,19.5858,VALID,141,VALID,0,
2013-10-27, 00:30:04,VALID,918.88,VALID,0,VALID,95.6129,VALID,0,VALID,19.6053,VALID,141,VALID,0,
2013-10-27, 00:31:04,VALID,918.843,VALID,0,VALID,95.6129,VALID,0,VALID,19.6263,VALID,141,VALID,0,
2013-10-27, 00:32:04,VALID,918.883,VALID,0,VALID,95.6434,VALID,0,VALID,19.6443,VALID,141,VALID,0,
2013-10-27, 00:33:04,VALID,918.853,VALID,0,VALID,95.6053,VALID,0.107441,VALID,19.6248,VALID,141,VALID,0,
2013-10-27, 00:34:04,VALID,918.843,VALID,0,VALID,95.5748,VALID,0,VALID,19.6248,VALID,141,VALID,0,
2013-10-27, 00:35:04,VALID,918.806,VALID,0,VALID,95.5671,VALID,0,VALID,19.6248,VALID,141,VALID,0,
2013-10-27, 00:36:04,VALID,918.804,VALID,0,VALID,95.5595,VALID,0,VALID,19.6443,VALID,141,VALID,0,
2013-10-27, 00:37:04,VALID,918.785,VALID,0,VALID,95.5595,VALID,0,VALID,19.6443,VALID,141,VALID,0,
2013-10-27, 00:38:04,VALID,918.785,VALID,0,VALID,95.5671,VALID,0,VALID,19.6638,VALID,141,VALID,0,
2013-10-27, 00:39:04,VALID,918.792,VALID,0,VALID,95.5214,VALID,0,VALID,19.6638,VALID,141,VALID,0,
2013-10-27, 00:40:04,VALID,918.757,VALID,0,VALID,95.5062,VALID,0,VALID,19.6653,VALID,141,VALID,0,
2013-10-27, 00:41:04,VALID,918.795,VALID,0,VALID,95.468,VALID,0,VALID,19.6638,VALID,141,VALID,0,
2013-10-27, 00:42:04,VALID,918.747,VALID,0,VALID,95.4833,VALID,0,VALID,19.6443,VALID,141,VALID,0,
2013-10-27, 00:43:04,VALID,918.734,VALID,0,VALID,95.4985,VALID,0,VALID,19.6458,VALID,141,VALID,0,
2013-10-27, 00:44:04,VALID,918.713,VALID,0,VALID,95.4985,VALID,0.107441,VALID,19.6443,VALID,141,VALID,0,
2013-10-27, 00:45:04,VALID,918.715,VALID,0,VALID,95.5367,VALID,0,VALID,19.6443,VALID,141,VALID,0,
2013-10-27, 00:46:04,VALID,918.704,VALID,0,VALID,95.529,VALID,0,VALID,19.6443,VALID,141,VALID,0,
2013-10-27, 00:47:04,VALID,918.701,VALID,0,VALID,95.529,VALID,0,VALID,19.6248,VALID,141,VALID,0,
2013-10-27, 00:48:04,VALID,918.685,VALID,0,VALID,95.5519,VALID,0,VALID,19.6248,VALID,141,VALID,0,
2013-10-27, 00:49:04,VALID,918.658,VALID,0,VALID,95.5367,VALID,0,VALID,19.6263,VALID,141,VALID,0,
2013-10-27, 00:50:04,VALID,918.643,VALID,0,VALID,95.5138,VALID,0,VALID,19.6053,VALID,141,VALID,0,
2013-10-27, 00:51:04,VALID,918.597,VALID,0,VALID,95.5138,VALID,0,VALID,19.6053,VALID,141,VALID,0,
2013-10-27, 00:52:04,VALID,918.568,VALID,0,VALID,95.5367,VALID,0,VALID,19.6053,VALID,141,VALID,0,
2013-10-27, 00:53:04,VALID,918.55,VALID,0,VALID,95.529,VALID,0,VALID,19.5858,VALID,141,VALID,0,
2013-10-27, 00:54:04,VALID,918.509,VALID,0,VALID,95.5519,VALID,0,VALID,19.6263,VALID,141,VALID,0,
2013-10-27, 00:55:04,VALID,918.504,VALID,0,VALID,95.529,VALID,0,VALID,19.5858,VALID,68,VALID,0,
2013-10-27, 00:56:04,VALID,918.509,VALID,0,VALID,95.5367,VALID,0,VALID,19.6068,VALID,68,VALID,0,
2013-10-27, 00:57:04,VALID,918.455,VALID,0,VALID,95.5138,VALID,0,VALID,19.6068,VALID,68,VALID,0,
2013-10-27, 00:58:04,VALID,918.427,VALID,0,VALID,95.4985,VALID,0,VALID,19.5873,VALID,68,VALID,0,
2013-10-27, 00:59:04,VALID,918.402,VALID,0,VALID,95.4909,VALID,0,VALID,19.5873,VALID,68,VALID,0,
2013-10-27, 01:00:04,VALID,918.358,VALID,0,VALID,95.468,VALID,0,VALID,19.5663,VALID,68,VALID,0,
2013-10-27, 01:01:04,VALID,918.326,VALID,0,VALID,95.468,VALID,0,VALID,19.5678,VALID,68,VALID,0,
2013-10-27, 01:02:04,VALID,918.276,VALID,0,VALID,95.4985,VALID,0,VALID,19.5663,VALID,68,VALID,0,
2013-10-27, 01:03:04,VALID,918.259,VALID,0,VALID,95.529,VALID,0,VALID,19.5873,VALID,68,VALID,0,
2013-10-27, 01:04:04,VALID,918.218,VALID,0,VALID,95.5367,VALID,0,VALID,19.6068,VALID,68,VALID,0,
2013-10-27, 01:05:04,VALID,918.201,VALID,0,VALID,95.5443,VALID,0,VALID,19.6068,VALID,68,VALID,0,
2013-10-27, 01:06:04,VALID,918.16,VALID,0,VALID,95.5062,VALID,0,VALID,19.6263,VALID,68,VALID,0,
2013-10-27, 01:07:04,VALID,918.161,VALID,0,VALID,95.4833,VALID,0,VALID,19.6263,VALID,68,VALID,0,
2013-10-27, 01:08:04,VALID,918.13,VALID,0,VALID,95.4528,VALID,0,VALID,19.6263,VALID,68,VALID,0,
2013-10-27, 01:09:04,VALID,918.095,VALID,0,VALID,95.4375,VALID,0,VALID,19.6248,VALID,68,VALID,0,
2013-10-27, 01:10:04,VALID,918.11,VALID,0,VALID,95.4223,VALID,0,VALID,19.6263,VALID,68,VALID,0,
2013-10-27, 01:11:04,VALID,918.075,VALID,0,VALID,95.4071,VALID,0,VALID,19.6263,VALID,68,VALID,0,
2013-10-27, 01:12:04,VALID,918.046,VALID,0,VALID,95.3384,VALID,0,VALID,19.6053,VALID,68,VALID,0,
2013-10-27, 01:13:04,VALID,918.022,VALID,0,VALID,95.3156,VALID,0,VALID,19.6068,VALID,68,VALID,0,
2013-10-27, 01:14:04,VALID,918.01,VALID,0,VALID,95.2546,VALID,0,VALID,19.6068,VALID,68,VALID,0,
2013-10-27, 01:15:04,VALID,917.996,VALID,0,VALID,95.2775,VALID,0,VALID,19.6068,VALID,69,VALID,0,
2013-10-27, 01:16:04,VALID,917.957,VALID,0,VALID,95.2546,VALID,0,VALID,19.6068,VALID,68,VALID,0,
2013-10-27, 01:17:04,VALID,917.953,VALID,0,VALID,95.2622,VALID,0,VALID,19.6053,VALID,68,VALID,0,
2013-10-27, 01:18:04,VALID,917.911,VALID,0,VALID,95.2851,VALID,0,VALID,19.6458,VALID,68,VALID,0,
2013-10-27, 01:19:04,VALID,917.873,VALID,0,VALID,95.2546,VALID,0,VALID,19.6263,VALID,69,VALID,0,
2013-10-27, 01:20:04,VALID,917.877,VALID,0,VALID,95.247,VALID,0,VALID,19.6053,VALID,68,VALID,0,
2013-10-27, 01:21:04,VALID,917.843,VALID,0,VALID,95.2622,VALID,0,VALID,19.6263,VALID,69,VALID,0,
2013-10-27, 01:22:04,VALID,917.858,VALID,0,VALID,95.3003,VALID,0,VALID,19.6068,VALID,68,VALID,0,
2013-10-27, 01:23:04,VALID,917.826,VALID,0,VALID,95.3232,VALID,0,VALID,19.5858,VALID,69,VALID,0,
2013-10-27, 01:24:04,VALID,917.803,VALID,0,VALID,95.2851,VALID,0,VALID,19.5663,VALID,68,VALID,0,
2013-10-27, 01:25:04,VALID,917.794,VALID,0,VALID,95.2622,VALID,0,VALID,19.5078,VALID,68,VALID,0,
2013-10-27, 01:26:04,VALID,917.773,VALID,0,VALID,95.247,VALID,0,VALID,19.5093,VALID,68,VALID,0,
2013-10-27, 01:27:04,VALID,917.787,VALID,0,VALID,95.2698,VALID,0,VALID,19.4493,VALID,68,VALID,0,
2013-10-27, 01:28:04,VALID,917.759,VALID,0,VALID,95.3079,VALID,0,VALID,19.4313,VALID,68,VALID,0,
2013-10-27, 01:29:04,VALID,917.764,VALID,0,VALID,95.3689,VALID,0,VALID,19.4118,VALID,99,VALID,0,
2013-10-27, 01:30:04,VALID,917.72,VALID,0,VALID,95.4452,VALID,0,VALID,19.4118,VALID,121,VALID,0,
2013-10-27, 01:31:04,VALID,917.707,VALID,0,VALID,95.5138,VALID,0,VALID,19.3923,VALID,120,VALID,0,
2013-10-27, 01:32:04,VALID,917.703,VALID,0,VALID,95.5976,VALID,0,VALID,19.4118,VALID,135,VALID,0,
2013-10-27, 01:33:04,VALID,917.668,VALID,0,VALID,95.6357,VALID,0,VALID,19.4118,VALID,135,VALID,0,
2013-10-27, 01:34:04,VALID,917.658,VALID,0,VALID,95.7044,VALID,0,VALID,19.4118,VALID,135,VALID,0,
2013-10-27, 01:35:04,VALID,917.649,VALID,0,VALID,95.7196,VALID,0,VALID,19.4118,VALID,135,VALID,0,
2013-10-27, 01:36:04,VALID,917.627,VALID,0,VALID,95.7654,VALID,0,VALID,19.4313,VALID,135,VALID,0,
2013-10-27, 01:37:04,VALID,917.59,VALID,0,VALID,95.7882,VALID,0,VALID,19.4298,VALID,161,VALID,0,
2013-10-27, 01:38:05,VALID,917.615,VALID,0,VALID,95.8035,VALID,0,VALID,19.4898,VALID,163,VALID,0,
2013-10-27, 01:39:05,VALID,917.555,VALID,0,VALID,95.8111,VALID,0,VALID,19.4688,VALID,153,VALID,0,
2013-10-27, 01:40:05,VALID,917.552,VALID,0,VALID,95.8416,VALID,0,VALID,19.4898,VALID,156,VALID,0,
2013-10-27, 01:41:05,VALID,917.553,VALID,0,VALID,95.8035,VALID,0,VALID,19.4883,VALID,155,VALID,0,
2013-10-27, 01:42:05,VALID,917.536,VALID,0,VALID,95.834,VALID,0,VALID,19.4688,VALID,158,VALID,0,
2013-10-27, 01:43:05,VALID,917.504,VALID,0,VALID,95.834,VALID,0,VALID,19.4898,VALID,156,VALID,0,
2013-10-27, 01:44:05,VALID,917.499,VALID,0,VALID,95.834,VALID,0,VALID,19.4688,VALID,159,VALID,0,
2013-10-27, 01:45:05,VALID,917.52,VALID,0,VALID,95.8263,VALID,0,VALID,19.4703,VALID,171,VALID,0,
2013-10-27, 01:46:05,VALID,917.482,VALID,0,VALID,95.8416,VALID,0,VALID,19.4493,VALID,163,VALID,0,
2013-10-27, 01:47:05,VALID,917.491,VALID,0,VALID,95.8721,VALID,0,VALID,19.4508,VALID,154,VALID,0,
2013-10-27, 01:48:05,VALID,917.481,VALID,0,VALID,95.8797,VALID,0,VALID,19.4298,VALID,165,VALID,0,
2013-10-27, 01:49:05,VALID,917.48,VALID,0,VALID,95.9254,VALID,0,VALID,19.4493,VALID,164,VALID,0,
2013-10-27, 01:50:05,VALID,917.47,VALID,0,VALID,95.9559,VALID,0,VALID,19.4493,VALID,163,VALID,0,
2013-10-27, 01:51:05,VALID,917.462,VALID,0,VALID,95.9788,VALID,0,VALID,19.4493,VALID,159,VALID,0,
2013-10-27, 01:52:05,VALID,917.474,VALID,0,VALID,95.9788,VALID,0,VALID,19.4703,VALID,159,VALID,0,
2013-10-27, 01:53:05,VALID,917.472,VALID,0,VALID,95.9788,VALID,0,VALID,19.4508,VALID,165,VALID,0,
2013-10-27, 01:54:05,VALID,917.473,VALID,0,VALID,96.0169,VALID,0,VALID,19.4493,VALID,167,VALID,0,
2013-10-27, 01:55:05,VALID,917.501,VALID,0,VALID,96.0093,VALID,0,VALID,19.4688,VALID,166,VALID,0,
2013-10-27, 01:56:05,VALID,917.507,VALID,0,VALID,96.0322,VALID,0,VALID,19.4688,VALID,167,VALID,0,
2013-10-27, 01:57:05,VALID,917.51,VALID,0,VALID,96.0627,VALID,0,VALID,19.4688,VALID,167,VALID,0,
2013-10-27, 01:58:05,VALID,917.481,VALID,0,VALID,96.055,VALID,0,VALID,19.4898,VALID,167,VALID,0,
2013-10-27, 01:59:05,VALID,917.496,VALID,0,VALID,96.0779,VALID,0,VALID,19.4883,VALID,167,VALID,0,
2013-10-27, 02:00:05,VALID,917.508,VALID,0,VALID,96.0932,VALID,0,VALID,19.5078,VALID,166,VALID,0,
2013-10-27, 02:01:05,VALID,917.485,VALID,0,VALID,96.0855,VALID,0,VALID,19.5483,VALID,167,VALID,0,
2013-10-27, 02:02:05,VALID,917.488,VALID,0,VALID,96.1008,VALID,0,VALID,19.5678,VALID,167,VALID,0,
2013-10-27, 02:03:05,VALID,917.531,VALID,0,VALID,96.0779,VALID,0,VALID,19.5873,VALID,167,VALID,0,
2013-10-27, 02:04:05,VALID,917.493,VALID,0,VALID,96.0855,VALID,0,VALID,19.6068,VALID,167,VALID,0,
2013-10-27, 02:05:05,VALID,917.492,VALID,0,VALID,96.0627,VALID,0,VALID,19.6458,VALID,167,VALID,0,
2013-10-27, 02:06:05,VALID,917.464,VALID,0,VALID,96.0932,VALID,0,VALID,19.6653,VALID,167,VALID,0,
2013-10-27, 02:07:05,VALID,917.516,VALID,0,VALID,96.0779,VALID,0,VALID,19.7238,VALID,167,VALID,0,
2013-10-27, 02:08:05,VALID,917.484,VALID,0,VALID,96.055,VALID,0,VALID,19.7628,VALID,167,VALID,0,
2013-10-27, 02:09:05,VALID,917.467,VALID,0,VALID,96.0245,VALID,0,VALID,19.7808,VALID,167,VALID,0,
2013-10-27, 02:10:05,VALID,917.48,VALID,0,VALID,95.9712,VALID,0,VALID,19.8408,VALID,167,VALID,0,
2013-10-27, 02:11:05,VALID,917.525,VALID,0,VALID,95.9178,VALID,0,VALID,19.8798,VALID,167,VALID,0,
2013-10-27, 02:12:05,VALID,917.508,VALID,0,VALID,95.8263,VALID,0,VALID,19.9188,VALID,167,VALID,0,
2013-10-27, 02:13:05,VALID,917.497,VALID,0,VALID,95.7272,VALID,0,VALID,19.8978,VALID,167,VALID,0,
2013-10-27, 02:14:05,VALID,917.5,VALID,0,VALID,95.6662,VALID,0,VALID,19.9578,VALID,167,VALID,0,
2013-10-27, 02:15:05,VALID,917.461,VALID,0,VALID,95.5595,VALID,0,VALID,20.0163,VALID,167,VALID,0,
2013-10-27, 02:16:05,VALID,917.455,VALID,0,VALID,95.4452,VALID,0,VALID,20.0358,VALID,167,VALID,0,
2013-10-27, 02:17:05,VALID,917.442,VALID,0,VALID,95.2927,VALID,0,VALID,20.0358,VALID,167,VALID,0,
2013-10-27, 02:18:05,VALID,917.461,VALID,0,VALID,95.1555,VALID,0,VALID,20.0163,VALID,167,VALID,0,
2013-10-27, 02:19:05,VALID,917.43,VALID,0,VALID,95.0183,VALID,0,VALID,20.0163,VALID,167,VALID,0,
2013-10-27, 02:20:05,VALID,917.411,VALID,0,VALID,94.9039,VALID,0,VALID,19.9968,VALID,167,VALID,0,
2013-10-27, 02:21:05,VALID,917.428,VALID,0,VALID,94.7896,VALID,0,VALID,19.9773,VALID,167,VALID,0,
2013-10-27, 02:22:05,VALID,917.418,VALID,0,VALID,94.7286,VALID,0,VALID,19.9578,VALID,167,VALID,0,
2013-10-27, 02:23:05,VALID,917.42,VALID,0,VALID,94.7133,VALID,0,VALID,19.9578,VALID,167,VALID,0,
2013-10-27, 02:24:05,VALID,917.386,VALID,0,VALID,94.7133,VALID,0,VALID,19.9173,VALID,167,VALID,0,
2013-10-27, 02:25:05,VALID,917.375,VALID,0,VALID,94.7591,VALID,0,VALID,19.9173,VALID,167,VALID,0,
2013-10-27, 02:26:05,VALID,917.369,VALID,0,VALID,94.7819,VALID,0,VALID,19.9578,VALID,167,VALID,0,
2013-10-27, 02:27:05,VALID,917.354,VALID,0,VALID,94.8277,VALID,0,VALID,19.9173,VALID,167,VALID,0,
2013-10-27, 02:28:05,VALID,917.348,VALID,0,VALID,94.8658,VALID,0,VALID,19.9383,VALID,167,VALID,0,
2013-10-27, 02:29:05,VALID,917.351,VALID,0,VALID,94.9115,VALID,0,VALID,19.9173,VALID,167,VALID,0,
2013-10-27, 02:30:05,VALID,917.375,VALID,0,VALID,94.9496,VALID,0,VALID,19.9173,VALID,167,VALID,0,
2013-10-27, 02:31:05,VALID,917.375,VALID,0,VALID,94.9725,VALID,0,VALID,19.8978,VALID,167,VALID,0,
2013-10-27, 02:32:05,VALID,917.418,VALID,0,VALID,94.9878,VALID,0,VALID,19.8978,VALID,167,VALID,0,
2013-10-27, 02:33:05,VALID,917.428,VALID,0,VALID,95.0106,VALID,0,VALID,19.8783,VALID,167,VALID,0,
2013-10-27, 02:34:05,VALID,917.444,VALID,0,VALID,95.0259,VALID,0,VALID,19.8603,VALID,167,VALID,0,
2013-10-27, 02:35:05,VALID,917.472,VALID,0,VALID,95.0411,VALID,0,VALID,19.8603,VALID,167,VALID,0,
2013-10-27, 02:36:05,VALID,917.498,VALID,0,VALID,95.0335,VALID,0,VALID,19.8408,VALID,167,VALID,0,
2013-10-27, 02:37:05,VALID,917.529,VALID,0,VALID,95.064,VALID,0,VALID,19.8018,VALID,167,VALID,0,
2013-10-27, 02:38:05,VALID,917.536,VALID,0,VALID,95.1021,VALID,0,VALID,19.7823,VALID,167,VALID,0,
2013-10-27, 02:39:05,VALID,917.548,VALID,0,VALID,95.186,VALID,0,VALID,19.7613,VALID,120,VALID,0,
2013-10-27, 02:40:05,VALID,917.531,VALID,0,VALID,95.247,VALID,0,VALID,19.7223,VALID,120,VALID,0,
2013-10-27, 02:41:05,VALID,917.524,VALID,0,VALID,95.2622,VALID,0,VALID,19.7028,VALID,120,VALID,0,
2013-10-27, 02:42:05,VALID,917.51,VALID,0,VALID,95.3003,VALID,0,VALID,19.6833,VALID,120,VALID,0,
2013-10-27, 02:43:05,VALID,917.507,VALID,0,VALID,95.3689,VALID,0,VALID,19.6638,VALID,120,VALID,0,
2013-10-27, 02:44:05,VALID,917.521,VALID,0,VALID,95.4147,VALID,0,VALID,19.6833,VALID,120,VALID,0,
2013-10-27, 02:45:05,VALID,917.508,VALID,0,VALID,95.4375,VALID,0,VALID,19.7043,VALID,120,VALID,0,
2013-10-27, 02:46:05,VALID,917.474,VALID,0,VALID,95.4833,VALID,0,VALID,19.6638,VALID,120,VALID,0,
2013-10-27, 02:47:05,VALID,917.483,VALID,0,VALID,95.4833,VALID,0,VALID,19.6638,VALID,120,VALID,0,
2013-10-27, 02:48:05,VALID,917.399,VALID,0,VALID,95.4757,VALID,0,VALID,19.6248,VALID,120,VALID,0,
2013-10-27, 02:49:05,VALID,917.398,VALID,0,VALID,95.5138,VALID,0,VALID,19.6263,VALID,120,VALID,0,
2013-10-27, 02:50:05,VALID,917.398,VALID,0,VALID,95.5367,VALID,0,VALID,19.6053,VALID,120,VALID,0,
2013-10-27, 02:51:05,VALID,917.381,VALID,0,VALID,95.5671,VALID,0,VALID,19.6053,VALID,120,VALID,0,
2013-10-27, 02:52:05,VALID,917.319,VALID,0,VALID,95.6205,VALID,0,VALID,19.6068,VALID,120,VALID,0,
2013-10-27, 02:53:05,VALID,917.341,VALID,0,VALID,95.6053,VALID,0,VALID,19.5663,VALID,120,VALID,0,
2013-10-27, 02:54:05,VALID,917.328,VALID,0,VALID,95.6053,VALID,0,VALID,19.5273,VALID,120,VALID,0,
2013-10-27, 02:55:05,VALID,917.354,VALID,0,VALID,95.6434,VALID,0,VALID,19.5678,VALID,120,VALID,0,
2013-10-27, 02:56:05,VALID,917.361,VALID,0,VALID,95.7577,VALID,0,VALID,19.5873,VALID,120,VALID,0,
2013-10-27, 02:57:05,VALID,917.333,VALID,0,VALID,95.7958,VALID,0,VALID,19.6068,VALID,120,VALID,0,
2013-10-27, 02:58:05,VALID,917.34,VALID,0,VALID,95.8187,VALID,0,VALID,19.5858,VALID,120,VALID,0,
2013-10-27, 02:59:05,VALID,917.331,VALID,0,VALID,95.8187,VALID,0,VALID,19.5858,VALID,120,VALID,0,
2013-10-27, 03:00:05,VALID,917.319,VALID,0,VALID,95.8721,VALID,0,VALID,19.6248,VALID,120,VALID,0,
2013-10-27, 03:01:05,VALID,917.354,VALID,0,VALID,95.8797,VALID,0,VALID,19.6248,VALID,120,VALID,0,
2013-10-27, 03:02:05,VALID,917.305,VALID,0,VALID,95.8873,VALID,0,VALID,19.6248,VALID,120,VALID,0,
2013-10-27, 03:03:05,VALID,917.286,VALID,0,VALID,95.9026,VALID,0,VALID,19.6248,VALID,120,VALID,0,
2013-10-27, 03:04:05,VALID,917.281,VALID,0,VALID,95.9331,VALID,0,VALID,19.6443,VALID,120,VALID,0,
2013-10-27, 03:05:05,VALID,917.293,VALID,0,VALID,95.9254,VALID,0,VALID,19.6848,VALID,120,VALID,0,
2013-10-27, 03:06:05,VALID,917.293,VALID,0,VALID,95.9483,VALID,0,VALID,19.7043,VALID,120,VALID,0,
2013-10-27, 03:07:05,VALID,917.308,VALID,0,VALID,95.8873,VALID,0,VALID,19.6833,VALID,120,VALID,0,
2013-10-27, 03:08:05,VALID,917.294,VALID,0,VALID,95.8645,VALID,0,VALID,19.6833,VALID,121,VALID,0,
2013-10-27, 03:09:05,VALID,917.335,VALID,0,VALID,95.7882,VALID,0,VALID,19.6848,VALID,128,VALID,0,
2013-10-27, 03:10:05,VALID,917.341,VALID,0,VALID,95.7272,VALID,0,VALID,19.6848,VALID,128,VALID,0,
2013-10-27, 03:11:05,VALID,917.342,VALID,0,VALID,95.6739,VALID,0,VALID,19.6458,VALID,132,VALID,0,
2013-10-27, 03:12:05,VALID,917.378,VALID,0,VALID,95.6205,VALID,0,VALID,19.6458,VALID,132,VALID,0,
2013-10-27, 03:13:05,VALID,917.315,VALID,0,VALID,95.5976,VALID,0,VALID,19.6458,VALID,138,VALID,0,
2013-10-27, 03:14:05,VALID,917.343,VALID,0,VALID,95.5671,VALID,0,VALID,19.6263,VALID,162,VALID,0,
2013-10-27, 03:15:05,VALID,917.338,VALID,0,VALID,95.5824,VALID,0,VALID,19.6263,VALID,162,VALID,0,
2013-10-27, 03:16:05,VALID,917.331,VALID,0,VALID,95.6205,VALID,0,VALID,19.6263,VALID,162,VALID,0,
2013-10-27, 03:17:05,VALID,917.28,VALID,0,VALID,95.6357,VALID,0,VALID,19.6458,VALID,162,VALID,0,
2013-10-27, 03:18:05,VALID,917.271,VALID,0,VALID,95.6586,VALID,0,VALID,19.6458,VALID,162,VALID,0,
2013-10-27, 03:19:05,VALID,917.294,VALID,0,VALID,95.6967,VALID,0,VALID,19.6458,VALID,162,VALID,0,
2013-10-27, 03:20:05,VALID,917.3,VALID,0,VALID,95.6891,VALID,0,VALID,19.6248,VALID,162,VALID,0,
2013-10-27, 03:21:05,VALID,917.277,VALID,0,VALID,95.7196,VALID,0,VALID,19.6458,VALID,162,VALID,0,
2013-10-27, 03:22:05,VALID,917.296,VALID,0,VALID,95.7654,VALID,0,VALID,19.6653,VALID,162,VALID,0,
2013-10-27, 03:23:05,VALID,917.301,VALID,0,VALID,95.7882,VALID,0,VALID,19.6653,VALID,162,VALID,0,
2013-10-27, 03:24:05,VALID,917.333,VALID,0,VALID,95.7882,VALID,0,VALID,19.6848,VALID,162,VALID,0,
2013-10-27, 03:25:05,VALID,917.363,VALID,0,VALID,95.7577,VALID,0,VALID,19.6863,VALID,162,VALID,0,
2013-10-27, 03:26:05,VALID,917.333,VALID,0,VALID,95.7501,VALID,0,VALID,19.6458,VALID,162,VALID,0,
2013-10-27, 03:27:05,VALID,917.366,VALID,0,VALID,95.7577,VALID,0,VALID,19.6248,VALID,162,VALID,0,
2013-10-27, 03:28:05,VALID,917.392,VALID,0,VALID,95.7577,VALID,0,VALID,19.6458,VALID,162,VALID,0,
2013-10-27, 03:29:05,VALID,917.392,VALID,0,VALID,95.7882,VALID,0,VALID,19.6263,VALID,162,VALID,0,
2013-10-27, 03:30:05,VALID,917.388,VALID,0,VALID,95.7806,VALID,0,VALID,19.5873,VALID,162,VALID,0,
2013-10-27, 03:31:05,VALID,917.398,VALID,0,VALID,95.7501,VALID,0,VALID,19.5678,VALID,162,VALID,0,
2013-10-27, 03:32:05,VALID,917.432,VALID,0,VALID,95.773,VALID,0,VALID,19.5678,VALID,162,VALID,0,
2013-10-27, 03:33:05,VALID,917.426,VALID,0,VALID,95.7882,VALID,0,VALID,19.5483,VALID,162,VALID,0,
2013-10-27, 03:34:05,VALID,917.434,VALID,0,VALID,95.8035,VALID,0,VALID,19.5483,VALID,162,VALID,0,
2013-10-27, 03:35:05,VALID,917.469,VALID,0,VALID,95.8187,VALID,0,VALID,19.5273,VALID,162,VALID,0,
2013-10-27, 03:36:05,VALID,917.443,VALID,0,VALID,95.834,VALID,0,VALID,19.5093,VALID,162,VALID,0,
2013-10-27, 03:37:05,VALID,917.456,VALID,0,VALID,95.8568,VALID,0.107441,VALID,19.4688,VALID,162,VALID,0,
2013-10-27, 03:38:05,VALID,917.494,VALID,0,VALID,95.8645,VALID,0.107441,VALID,19.4493,VALID,162,VALID,0,
2013-10-27, 03:39:05,VALID,917.507,VALID,0,VALID,95.9254,VALID,0,VALID,19.4493,VALID,162,VALID,0,
2013-10-27, 03:40:05,VALID,917.503,VALID,0,VALID,95.9559,VALID,0.107441,VALID,19.4493,VALID,162,VALID,0,
2013-10-27, 03:41:05,VALID,917.503,VALID,0,VALID,95.9788,VALID,0.107441,VALID,19.4103,VALID,162,VALID,0,
2013-10-27, 03:42:05,VALID,917.502,VALID,0,VALID,95.9788,VALID,0.107441,VALID,19.3908,VALID,162,VALID,0,
2013-10-27, 03:43:05,VALID,917.491,VALID,0,VALID,96.0245,VALID,0,VALID,19.3908,VALID,162,VALID,0,
2013-10-27, 03:44:05,VALID,917.513,VALID,0,VALID,96.0779,VALID,0,VALID,19.3908,VALID,162,VALID,0,
2013-10-27, 03:45:05,VALID,917.452,VALID,0,VALID,96.116,VALID,0,VALID,19.3908,VALID,162,VALID,0,
2013-10-27, 03:46:05,VALID,917.469,VALID,0,VALID,96.1923,VALID,0,VALID,19.4688,VALID,162,VALID,0,
2013-10-27, 03:47:05,VALID,917.472,VALID,0,VALID,96.238,VALID,0.107441,VALID,19.4673,VALID,162,VALID,0,
2013-10-27, 03:48:05,VALID,917.473,VALID,0,VALID,96.2609,VALID,0,VALID,19.5273,VALID,162,VALID,0,
2013-10-27, 03:49:05,VALID,917.476,VALID,0,VALID,96.3219,VALID,0.107441,VALID,19.5468,VALID,162,VALID,0,
2013-10-27, 03:50:05,VALID,917.484,VALID,0,VALID,96.2837,VALID,0,VALID,19.5678,VALID,162,VALID,0,
2013-10-27, 03:51:05,VALID,917.509,VALID,0,VALID,96.3066,VALID,0,VALID,19.5468,VALID,162,VALID,0,
2013-10-27, 03:52:05,VALID,917.521,VALID,0,VALID,96.299,VALID,0,VALID,19.5678,VALID,162,VALID,0,
2013-10-27, 03:53:05,VALID,917.525,VALID,0,VALID,96.2837,VALID,0,VALID,19.5678,VALID,161,VALID,0,
2013-10-27, 03:54:05,VALID,917.508,VALID,0,VALID,96.2533,VALID,0,VALID,19.5288,VALID,116,VALID,0,
2013-10-27, 03:55:05,VALID,917.506,VALID,0,VALID,96.2685,VALID,0,VALID,19.5483,VALID,116,VALID,0,
2013-10-27, 03:56:05,VALID,917.492,VALID,0,VALID,96.2837,VALID,0,VALID,19.5483,VALID,116,VALID,0,
2013-10-27, 03:57:05,VALID,917.512,VALID,0,VALID,96.3142,VALID,0,VALID,19.5468,VALID,116,VALID,0,
2013-10-27, 03:58:05,VALID,917.478,VALID,0,VALID,96.3447,VALID,0,VALID,19.5873,VALID,116,VALID,0,
2013-10-27, 03:59:05,VALID,917.517,VALID,0,VALID,96.3371,VALID,0,VALID,19.5873,VALID,96,VALID,0,